Find Starlink 35322

NORAD ID: 66332 Int'l Des: 2025-253 Owner: SPXS Country: US Constellation: starlink operational
LEOCIRCULAR

現在のビュー

3D地球を読み込み中...

Starlink 35322について

説明を読み込み中...

次回通過

Passes for default location (London). Set your location on the main map for personalized predictions.

高度履歴

Loading altitude history...

軌道要素

1 66332U 25253P 26145.95959088 .00023412 00000-0 85729-3 0 9994
2 66332 42.9974 135.9835 0000342 313.8990 46.1834 15.27592140 32066
Epoch: May 25, 2026 • Age: 16 hours

現在のステータス

高度 482.2 km
速度 7.63 km/s
衛星直下点 7.17°N, 171.72°W
打ち上げ日 Nov 6, 2025
運用期間 0.5 years
タイプ internet

技術仕様

分類 Payload
質量 575.00 kg
乾燥質量 530.00 kg
総質量 575.00 kg
長さ 0.30 m
直径 4.10 m
スパン 29.00 m
形状 Box + pan
製造者 SPXS
バスタイプ Starlink V2MO
フェーズステータス In Orbit
所有者/国 SPXS/US

Most Searched